[[{"header":{"parameterUnit":"m.s-1","parameterCategory":1,"la1":30.2991,"la2":30.254,"lo1":-89.0895,"lo2":-89.0444,"dx":0.0017,"dy":0.0017,"nx":28,"ny":28,"refTime":"2022-12-09T15:00:00:Z","depth":0,"parameterNumber":2,"parameterNumberName":"U-component_of_WINDS"},"data":[0,0,0,0,0,0,0,0,0,0,0,0,0,0,0,0,0,0,0,0,0,0,0,0,0,0,0,0,0,0,0,0,0,0,0,0,0,0,0,0,0,0,0,0,0,0,0,0,0,0,0,0,0,0,0,0,0,0,-0.0475,-0.0475,0,-0.0466,-0.0466,-0.0466,-0.0478,-0.0479,-0.0479,-0.0479,-0.0469,-0.0468,-0.0468,0,0,0,0,0,0,0,0,0,0,0,0,0,-0.0502,-0.0502,-0.0475,-0.0475,-0.0475,-0.0466,-0.0466,-0.0466,-0.0478,-0.0479,-0.0479,-0.048,-0.0469,-0.0468,-0.0468,0,0,0,0,0,0,0,0,0,0,0,0,0,-0.0491,-0.0501,-0.0475,-0.048,-0.048,-0.0466,-0.0466,-0.0466,-0.0478,-0.0479,-0.0479,-0.048,-0.047,-0.0469,-0.0468,-0.0448,0,0,-0.0464,-0.0464,0,0,0,0,0,0,0,0,-0.0492,-0.049,-0.0479,-0.0479,-0.048,-0.0474,-0.0472,-0.046,-0.0478,-0.0479,-0.0479,-0.048,-0.047,-0.0469,-0.0466,-0.0447,-0.0447,-0.0464,-0.0464,-0.0463,-0.0463,0,0,0,0,0,0,0,-0.0493,-0.0491,-0.0471,-0.0479,-0.0479,-0.0482,-0.0482,-0.0469,-0.0471,-0.0479,-0.048,-0.0478,-0.047,-0.0467,-0.0466,-0.0447,-0.0464,-0.0463,-0.0463,-0.0462,-0.0412,-0.0411,0,0,0,0,0,0,-0.0493,-0.0491,-0.0472,-0.0471,-0.0488,-0.0481,-0.048,-0.0475,-0.0471,-0.0471,-0.0478,-0.0479,-0.0468,-0.0467,-0.0465,-0.0442,-0.0463,-0.0462,-0.0462,-0.0413,-0.0412,-0.0411,0,0,0,0,0,0,-0.0494,-0.0491,-0.0472,-0.0481,-0.0479,-0.048,-0.0474,-0.0475,-0.0471,-0.047,-0.047,-0.0474,-0.0469,-0.0467,-0.0452,-0.0442,-0.0462,-0.0461,-0.0413,-0.0412,-0.0411,-0.0395,0,0,0,0,0,0,-0.0494,-0.0491,-0.0484,-0.0481,-0.0479,-0.0459,-0.0473,-0.0474,-0.0469,-0.0471,-0.0467,-0.0467,-0.0469,-0.0454,-0.0451,-0.0441,-0.046,-0.0414,-0.0413,-0.0412,-0.0397,-0.0394,-0.0391,0,0,0,0,0,-0.0495,-0.0479,-0.0483,-0.0481,-0.0469,-0.0458,-0.0457,-0.046,-0.0468,-0.0461,-0.0461,-0.0467,-0.0444,-0.0452,-0.0449,-0.0439,-0.0415,-0.0413,-0.0412,-0.0398,-0.0394,-0.0391,0,0,0,0,0,0,-0.048,-0.0479,-0.0484,-0.0466,-0.0462,-0.0461,-0.0451,-0.0456,-0.045,-0.0451,-0.0456,-0.0455,-0.0439,-0.0437,-0.0447,-0.0419,-0.0431,-0.0428,-0.0421,-0.0418,-0.0415,-0.0415,-0.0459,0,0,0,0,0,-0.0475,-0.0466,-0.0466,-0.0451,-0.0449,-0.045,-0.0445,-0.0449,-0.0445,-0.0443,-0.0441,-0.0437,-0.0429,-0.0423,-0.0415,-0.0397,-0.0396,-0.0388,-0.0385,-0.0383,-0.0381,-0.0371,-0.0368,-0.0406,-0.0406,-0.0406,0,0,-0.0464,-0.0462,-0.0456,-0.0448,-0.0445,-0.0436,-0.0449,-0.0438,-0.0432,-0.0441,-0.0427,-0.0426,-0.0422,-0.0405,-0.0398,-0.0403,-0.037,-0.0381,-0.0379,-0.0378,-0.0369,-0.0366,-0.0362,-0.0405,-0.0405,-0.0405,0,0,-0.0439,-0.0437,-0.0424,-0.0421,-0.0417,-0.0419,-0.0416,-0.0413,-0.0413,-0.0399,-0.0407,-0.0399,-0.0384,-0.0381,-0.0377,-0.0352,-0.0357,-0.0349,-0.0335,-0.0325,-0.0322,-0.032,-0.0311,-0.0307,-0.0347,-0.0347,-0.0347,0,-0.0425,-0.0412,-0.0417,-0.0406,-0.0402,-0.0411,-0.0398,-0.0395,-0.0389,-0.0386,-0.0392,-0.0375,-0.0372,-0.0355,-0.0349,-0.0346,-0.0343,-0.0349,-0.0322,-0.032,-0.0317,-0.0309,-0.0305,-0.0346,-0.0346,-0.0346,-0.0346,0,-0.0396,-0.0386,-0.0377,-0.0371,-0.0366,-0.0354,-0.0357,-0.0351,-0.0355,-0.0356,-0.0342,-0.0339,-0.0332,-0.0328,-0.0331,-0.0311,-0.0315,-0.0322,-0.0333,-0.0313,-0.0305,-0.0301,-0.0345,-0.0345,-0.0345,-0.0346,0,0,-0.036,-0.0358,-0.0354,-0.0352,-0.0348,-0.0341,-0.033,-0.0323,-0.0318,-0.0314,-0.0304,-0.0292,-0.0299,-0.0295,-0.0298,-0.029,-0.027,-0.0298,-0.0298,-0.0292,-0.0248,-0.0243,-0.0239,-0.0274,-0.0273,-0.0273,-0.0248,0,-0.0335,-0.0316,-0.0321,-0.0302,-0.0293,-0.0302,-0.0293,-0.0289,-0.029,-0.0283,-0.0283,-0.0275,-0.0284,-0.0282,-0.0274,-0.0274,-0.0261,-0.0276,-0.0265,-0.0264,-0.0265,-0.0235,-0.0229,-0.0206,-0.0245,-0.0245,-0.0244,0,-0.0304,-0.0299,-0.0279,-0.0278,-0.0274,-0.0265,-0.0259,-0.0253,-0.0249,-0.025,-0.0246,-0.0251,-0.024,-0.0252,-0.0237,-0.0247,-0.0242,-0.0242,-0.0241,-0.024,-0.0253,-0.0232,-0.0199,-0.0195,-0.0239,-0.024,-0.024,0,-0.028,-0.0268,-0.0255,-0.0253,-0.0251,-0.0244,-0.0243,-0.024,-0.0236,-0.0231,-0.0228,-0.0222,-0.0218,-0.0213,-0.0216,-0.0224,-0.02,-0.0212,-0.02,-0.02,-0.0194,-0.0195,-0.0159,-0.0192,-0.0192,-0.0192,-0.0192,0,-0.0251,-0.0239,-0.0244,-0.0236,-0.0223,-0.0228,-0.0214,-0.0214,-0.0212,-0.0204,-0.0211,-0.0203,-0.0208,-0.0201,-0.0203,-0.019,-0.0188,-0.0189,-0.0189,-0.0188,-0.0188,-0.0185,-0.0187,-0.0191,-0.0192,-0.0192,-0.0192,0,-0.0222,-0.0225,-0.0212,-0.0211,-0.0211,-0.0201,-0.02,-0.0193,-0.0194,-0.0184,-0.0182,-0.0184,-0.0175,-0.0178,-0.0169,-0.0171,-0.0154,-0.0157,-0.0156,-0.0156,-0.0145,-0.0146,-0.0106,-0.0101,-0.0137,-0.0137,-0.0136,0,-0.0204,-0.0195,-0.0193,-0.0189,-0.0187,-0.018,-0.0175,-0.018,-0.0175,-0.0171,-0.0164,-0.0157,-0.0151,-0.0138,-0.0138,-0.0131,-0.0134,-0.0121,-0.0133,-0.0132,-0.0134,-0.0134,-0.0133,-0.0118,-0.0118,-0.0117,-0.0117,0,-0.0171,-0.0173,-0.0167,-0.0161,-0.0156,-0.0152,-0.0148,-0.0144,-0.0148,-0.0143,-0.0135,-0.013,-0.0122,-0.0114,-0.0108,-0.0107,-0.0113,-0.0113,-0.011,-0.0108,-0.0108,-0.0108,-0.0149,-0.0114,-0.0114,-0.0115,-0.0115,-0.0115,-0.0147,-0.0139,-0.0137,-0.013,-0.0128,-0.0124,-0.0117,-0.0118,-0.0112,-0.0105,-0.0108,-0.0099,-0.0097,-0.0089,-0.0087,-0.008,-0.0085,-0.0081,-0.008,-0.0078,-0.0077,-0.0109,-0.0079,-0.0079,-0.0079,-0.0079,-0.0079,0,-0.0114,-0.0113,-0.0107,-0.0102,-0.0096,-0.0103,-0.0099,-0.0094,-0.0086,-0.0083,-0.0078,-0.0069,-0.0062,-0.0062,-0.0055,-0.005,-0.0052,-0.0048,-0.0048,-0.0048,-0.0073,-0.0076,-0.0046,-0.0046,-0.0046,-0.0046,-0.0046,-0.0046,-0.0096,-0.0084,-0.0086,-0.0073,-0.0072,-0.0063,-0.0061,-0.0058,-0.0056,-0.0045,-0.004,-0.004,-0.0039,-0.0032,-0.0026,-0.0026,-0.0024,-0.0018,-0.0019,-0.0043,-0.0046,-0.0049,-0.0052,-0.0017,-0.0017,0.0005,0.0005,0.0005]},{"header":{"parameterUnit":"m.s-1","parameterCategory":1,"la1":30.2991,"la2":30.254,"lo1":-89.0895,"lo2":-89.0444,"dx":0.0017,"dy":0.0017,"nx":28,"ny":28,"refTime":"2022-12-09T15:00:00:Z","depth":0,"parameterNumber":3,"parameterNumberName":"V-component_of_WINDS"},"data":[0,0,0,0,0,0,0,0,0,0,0,0,0,0,0,0,0,0,0,0,0,0,0,0,0,0,0,0,0,0,0,0,0,0,0,0,0,0,0,0,0,0,0,0,0,0,0,0,0,0,0,0,0,0,0,0,0,0,2.9565,2.9567,0,2.9715,2.9717,2.9718,2.9742,2.974,2.9739,2.9738,2.9889,2.9894,2.9899,0,0,0,0,0,0,0,0,0,0,0,0,0,2.9297,2.9302,2.9565,2.9567,2.9569,2.9715,2.9717,2.9719,2.9742,2.974,2.9739,2.9737,2.9887,2.9893,2.99,0,0,0,0,0,0,0,0,0,0,0,0,0,2.9427,2.9303,2.9564,2.9598,2.9602,2.9714,2.9717,2.9719,2.9742,2.974,2.9738,2.9736,2.9885,2.9893,2.9901,2.9989,0,0,2.9925,2.9928,0,0,0,0,0,0,0,0,2.9419,2.9436,2.9591,2.9596,2.9601,2.9708,2.9678,2.981,2.9743,2.9689,2.9738,2.9735,2.983,2.9842,2.9875,2.9996,3.0003,2.9925,2.993,2.9934,2.9936,0,0,0,0,0,0,0,2.941,2.943,2.9624,2.9593,2.9599,2.9605,2.9621,2.9703,2.9769,2.9693,2.9696,2.9713,2.9832,2.9867,2.9878,3.0005,2.9925,2.9932,2.9937,2.994,3.0207,3.0209,0,0,0,0,0,0,2.9396,2.9422,2.9619,2.9629,2.9503,2.9611,2.9629,2.9675,2.9768,2.978,2.9715,2.9714,2.9855,2.9869,2.9884,2.9994,2.9933,2.9941,2.9945,3.0205,3.0208,3.021,0,0,0,0,0,0,2.939,2.9413,2.9613,2.9526,2.9552,2.9618,2.9669,2.9679,2.9714,2.9784,2.9796,2.9738,2.9854,2.9873,2.9963,3.0,2.9944,2.9952,3.0202,3.0206,3.0209,3.0215,0,0,0,0,0,0,2.9382,2.9411,2.9445,2.9527,2.9557,2.9691,2.9672,2.9684,2.9728,2.9728,2.9809,2.9821,2.9853,2.9951,2.9971,3.001,2.9958,3.0199,3.0204,3.0208,3.0212,3.0219,3.0224,0,0,0,0,0,2.9372,2.944,2.9447,2.9471,2.9602,2.9693,2.971,2.9747,2.9731,2.9766,2.9811,2.9818,2.9992,2.996,2.9983,3.0024,3.0197,3.0202,3.0207,3.0209,3.0217,3.0224,0,0,0,0,0,0,2.936,2.9452,2.946,2.9557,2.9617,2.9696,2.9742,2.9754,2.9819,2.9817,2.9859,2.9877,2.9966,3.0004,2.9966,3.0115,3.0093,3.0103,3.0087,3.0095,3.0101,3.009,2.9964,0,0,0,0,0,2.9369,2.9436,2.9512,2.959,2.962,2.9676,2.9717,2.974,2.9804,2.9829,2.9881,2.9942,3.0011,3.0055,3.0122,3.0218,3.0236,3.0257,3.0263,3.0268,3.0276,3.033,3.0341,3.0228,3.0228,3.0227,0,0,2.9388,2.9446,2.9486,2.9589,2.9639,2.9707,2.9697,2.9769,2.982,2.984,2.9929,2.9969,3.004,3.0133,3.0177,3.0168,3.0311,3.0275,3.0278,3.0284,3.0337,3.0347,3.0357,3.0231,3.0231,3.023,0,0,2.9457,2.9507,2.9578,2.9628,2.9704,2.9741,2.9757,2.9836,2.9863,2.9953,2.997,3.0031,3.0148,3.0198,3.0239,3.0327,3.0337,3.0348,3.038,3.0432,3.0441,3.0449,3.0481,3.0492,3.0356,3.0356,3.0356,0,2.947,2.9574,2.9613,2.9686,2.9731,2.9753,2.9825,2.9871,2.9964,2.9995,2.9983,3.0132,3.0181,3.0287,3.0308,3.034,3.0361,3.0339,3.0436,3.0445,3.0453,3.0484,3.0496,3.0357,3.0357,3.0357,3.0357,0,2.9588,2.9659,2.9708,2.9798,2.9849,2.992,2.997,3.0016,3.0035,3.0073,3.0164,3.0224,3.0304,3.0331,3.035,3.044,3.0432,3.0428,3.0407,3.0464,3.0494,3.0507,3.0358,3.0358,3.0358,3.0357,0,0,2.9653,2.9765,2.9782,2.9824,2.9909,2.9965,3.0037,3.0116,3.0155,3.0219,3.0281,3.038,3.0377,3.0423,3.0448,3.0494,3.0561,3.0484,3.0487,3.0497,3.0664,3.0667,3.068,3.0567,3.057,3.0571,3.0659,0,2.9733,2.9864,2.9901,3.0012,3.0079,3.0101,3.0164,3.0223,3.026,3.0322,3.0363,3.0433,3.0423,3.0452,3.0498,3.0543,3.0595,3.0537,3.0625,3.0628,3.0607,3.0696,3.0699,3.0779,3.0671,3.0673,3.0674,0,2.9843,2.991,3.0027,3.0105,3.0134,3.019,3.0266,3.0325,3.0392,3.0416,3.0468,3.0489,3.0565,3.0539,3.0645,3.0605,3.0643,3.067,3.0674,3.0684,3.0655,3.0709,3.0805,3.0817,3.0693,3.0691,3.069,0,2.988,2.9999,3.0085,3.012,3.0212,3.0251,3.0291,3.0356,3.0402,3.0467,3.0497,3.0571,3.0611,3.0667,3.0707,3.0685,3.0809,3.0787,3.0831,3.083,3.0857,3.0855,3.0961,3.0881,3.088,3.088,3.088,0,2.9966,3.0037,3.0103,3.0156,3.0237,3.0279,3.0357,3.0397,3.0455,3.0516,3.0539,3.0596,3.0645,3.0708,3.0739,3.0822,3.084,3.0861,3.0869,3.086,3.0857,3.0886,3.0882,3.0883,3.0883,3.0882,3.0881,0,3.0021,3.0068,3.0164,3.0243,3.0265,3.0321,3.0388,3.044,3.0479,3.0555,3.0576,3.0635,3.0711,3.0756,3.0851,3.0872,3.0964,3.0969,3.0942,3.0946,3.0988,3.0984,3.1117,3.1136,3.1042,3.1043,3.1043,0,3.0073,3.0128,3.0214,3.0257,3.0298,3.0366,3.0413,3.0456,3.0504,3.0585,3.0627,3.0704,3.0768,3.0887,3.0939,3.1012,3.1019,3.1061,3.103,3.1019,3.1021,3.1017,3.1023,3.1066,3.1067,3.1067,3.1068,0,3.016,3.0181,3.0247,3.0323,3.0378,3.044,3.05,3.0534,3.0587,3.064,3.0718,3.0767,3.0865,3.0941,3.1019,3.1059,3.1073,3.1077,3.1091,3.1083,3.1065,3.1076,3.0957,3.1074,3.1073,3.1073,3.1073,3.1072,3.0215,3.0266,3.0335,3.0409,3.0459,3.0516,3.0569,3.0614,3.068,3.0764,3.0785,3.0867,3.0932,3.1038,3.108,3.1145,3.1138,3.1158,3.1164,3.1168,3.117,3.1054,3.1159,3.1159,3.1159,3.1158,3.1158,0,3.0304,3.035,3.0417,3.0502,3.0561,3.0569,3.0637,3.0685,3.0757,3.0817,3.088,3.097,3.1044,3.1102,3.1178,3.1218,3.1226,3.1237,3.1234,3.1244,3.1171,3.1152,3.1229,3.1229,3.1229,3.1229,3.1229,3.1229,3.0357,3.0444,3.0473,3.0585,3.0629,3.0711,3.0749,3.0801,3.085,3.0949,3.1012,3.1049,3.1108,3.1189,3.1257,3.1272,3.1299,3.1309,3.1325,3.1256,3.1249,3.1241,3.1223,3.1314,3.1314,3.1392,3.1393,3.1393]}]]